Regional Weather Roundup
Issued by NWS Upton, NY

Current Version | Previous Version | Text Only | Print | Product List | Glossary On
Versions: 1 2 3 4 5 6 7 8 9 10 11 12 13 14 15 16 17 18 19 20 21 22 23 24 25 26 27
000
ASUS41 KOKX 271108
RWROKX

REGIONAL WEATHER ROUNDUP
NATIONAL WEATHER SERVICE NEW YORK NY
600 AM EST MON FEB 27 2017

NOTE: "FAIR" INDICATES FEW OR NO CLOUDS BELOW 12,000 FEET WITH NO
SIGNIFICANT WEATHER AND/OR OBSTRUCTIONS TO VISIBILITY.

NYZ071-072-176-178-NJZ106-104-271200-
NEW YORK CITY METRO AREA

CITY           SKY/WX    TMP DP  RH WIND       PRES   REMARKS
Central Park   PTCLDY    35  19  52 VRB6      30.39R WCI  30
Wall St Helipt NOT AVBL
LaGuardia APRT CLEAR     38  18  44 SW8       30.37R WCI  32
Kennedy INTL   CLEAR     36  25  64 SW15      30.40R WCI  27
Breezy Point     N/A     34 N/A N/A SW10G17     N/A  WCI  26
Newark/Liberty CLEAR     30  19  63 SW9       30.38R WCI  22
Teterboro      CLEAR     30  20  66 S6        30.37R WCI  24
$$

NYZ177-179-078>081-271200-
LONG ISLAND NEW YORK

CITY           SKY/WX    TMP DP  RH WIND       PRES   REMARKS
Jones Beach      N/A     36 N/A N/A SW14G24     N/A  WCI  27
Matinecock PT  NOT AVBL
Farmingdale    CLEAR     32  22  66 SW6       30.38R WCI  26
MacArthur/ISP  CLEAR     31  22  69 SW3       30.37R
Shirley        CLEAR     28  22  78 SW3       30.38R
Westhampton    CLEAR     17  12  80 CALM      30.39R
Southampton    NOT AVBL
Bridgehampton  NOT AVBL
East Hampton     N/A     20  16  84 CALM      30.36R
Montauk          N/A     37  25  61 SW5       30.37R WCI  33
$$

NYZ052-065-067-271200-
HUDSON VALLEY

CITY           SKY/WX    TMP DP  RH WIND       PRES   REMARKS
White Plains   CLEAR     32  16  51 W3        30.33R
Newburgh       CLEAR     27  19  74 CALM      30.33R
Montgomery     CLEAR     26  18  71 SW7       30.31R WCI  18
Poughkeepsie   CLEAR     24  19  81 CALM      30.33R
Albany         PTCLDY    29  17  61 S10       30.24R WCI  20
$$

NJZ001-105-106-008-010-013-015-019>022-104-271200-
NEW JERSEY

CITY           SKY/WX    TMP DP  RH WIND       PRES   REMARKS
Newark/Liberty CLEAR     30  19  63 SW9       30.38R WCI  22
Teterboro      CLEAR     30  20  66 S6        30.37R WCI  24
Caldwell       CLEAR     31  17  56 S3        30.37R
Somerville     CLEAR     21  17  84 CALM      30.37R
Linden         NOT AVBL
Sussex         CLEAR     26  19  74 CALM      30.33R
Andover          N/A     26  18  71 CALM      30.34R
Trenton        PTCLDY    28  21  75 CALM      30.37R
Millville      PTCLDY    23  21  92 CALM      30.39S
Atlantic City  CLEAR     32  24  72 S5        30.40S WCI  27
Wrightstown    PTCLDY    27  20  76 SW5       30.37R WCI  21
Toms River     PTCLDY    20  18  92 CALM      30.41R
Belmar         CLEAR     27  19  72 SW6       30.39S WCI  20
$$

PAZ047>061-062-071-271200-
EASTERN PENNSYLVANIA

CITY           SKY/WX    TMP DP  RH WIND       PRES   REMARKS
Philadelphia   MOCLDY    34  25  69 SW3       30.39S
Allentown      PTCLDY    26  17  68 CALM      30.36R
Scranton       CLEAR     29  18  63 S3        30.29R
$$

CTZ002-004>006-009-010-012-RIZ004-006-007-MAZ004-011-015-271200-
SOUTHERN NEW ENGLAND
 IN CT

CITY           SKY/WX    TMP DP  RH WIND       PRES   REMARKS
Bradley INTL   CLEAR     29  18  63 S9        30.31R WCI  20
Hartford       CLEAR     29  18  63 S7        30.34R WCI  22
Danbury        CLEAR     22  18  85 CALM      30.34R
Wtrbury/Oxford CLEAR     28  14  54 SW6       30.33R WCI  22
Bridgeport     CLEAR     37  23  56 SW7       30.36R WCI  32
Meriden        CLEAR     32  17  54 S7        30.35R WCI  26
New Haven      CLEAR     36  24  62 SW6       30.36R WCI  31
Chester          N/A     32  21  64 SW8G15    30.34R WCI  25
Groton         CLEAR     36  22  56 W7        30.36R WCI  30
Wilimantic     CLEAR     23  19  85 CALM      30.34R

 IN RI

CITY           SKY/WX    TMP DP  RH WIND       PRES   REMARKS
Providence     CLEAR     30  16  56 SW7       30.34R WCI  23
Block Island   CLEAR     36  24  62 SW13      30.36R WCI  27
Westerly       CLEAR     36  23  59 SW6       30.35R WCI  31
 IN MA

CITY           SKY/WX    TMP DP  RH WIND       PRES   REMARKS
Boston         NOT AVBL
Worcester      CLEAR     25  14  63 SW8       30.24R WCI  16
Westfield      CLEAR     21  18  88 CALM      30.29R
Provincetown   CLEAR     33  22  63 SW17      30.32R WCI  22
Nantucket      CLEAR     35  23  61 W10       30.35R WCI  27
$$

ANZ330-335-338-340-345-350-353-355-271200-
COASTAL MARINE OBSERVATIONS


STATION/POSITION TIME  SKY/WX   TEMP    WIND        PRES    VSBY  WAVE
                                AIR SEA DIR/SP/G                  HT/PER
                 (UTC)          (F)     (DEG/KT/KT) (MB)    (MI)  (FT/S)
NY HARB ENTRANCE 0950            40 42  250/ 12/ 14 1027.9          2/ 9
20 S FIRE ISLAND 1050            41 43  250/ 12/ 16 1028.7          2/ 9
GREAT SOUTH BAY  NOT AVBL
23 SSW MONTAUK P 0950            40 44              1028.0          4/10
15 E BARNEGAT LI 1030               44                N/A           3/ 9
HUDSON CANYON    0950               47              1029.0          4/10
KINGS POINT      1048            36 40              1028.3
EXECUTION ROCKS  NOT AVBL
CENTRAL LI SOUND 1030            37     220/ 14/ 17   N/A           2/ 2
EASTERN LI SOUND NOT AVBL
ROBBINS REEF     1048            34     240/  9/ 11 1029.2
$$


>>>>>>>>>>>>>>>>>>>>>>>>>>>> KEY <<<<<<<<<<<<<<<<<<<<<<<<<<<
>                                                          <
>     SKY/WX - Sky Condition/Present Weather               <
>     TMP    - Temperature in Fahrenheit                   <
>     DP     - Dew Point in Fahrenheit                     <
>     RH     - Relative Humidity in Percent                <
>     WIND   - Direction (from) and Speed in MPH           <
>     PRES   - Mean Sea Level Pressure (inches of Hg)      <
>     WCI    - Wind Chill Index                            <
>     VSB    - VISIBILITY IN MILES                         <
>     HX     - HEAT INDEX                                  <
>     TC     - TEMPERATURE IN CELSIUS                      <
>     VRB    - VARIABLE WIND DIRECTION                     <
>                                                          <
>>>>>>>>>>>>>>>>>>>>>>>>>>>> KEY <<<<<<<<<<<<<<<<<<<<<<<<<<<




USA.gov is the U.S. government's official web portal to all federal, state and local government web resources and services.